Regional Weather Roundup
Issued by NWS

Home | Current Version | Previous Version | Graphics & Text | Print | Product List | Glossary Off
Versions: 1 2 3 4 5 6 7 8 9 10 11 12 13 14 15 16 17 18 19 20 21 22 23 24 25 26 27 28 29 30 31 32 33 34 35 36 37 38 39 40 41 42 43 44 45 46 47 48 49 50

000
ASUS43 KFSD 171610
RWRSD

WEATHER ROUNDUP FOR SOUTH DAKOTA
NATIONAL WEATHER SERVICE SIOUX FALLS SD
1100 AM CDT FRI APR 17 2015

NOTE: "FAIR" INDICATES FEW OR NO CLOUDS BELOW 12,000 FEET WITH NO
SIGNIFICANT WEATHER AND/OR OBSTRUCTIONS TO VISIBILITY.


SDZ001>005-009-010-012>017-171700-
NORTHWEST AND NORTH CENTRAL SOUTH DAKOTA

CITY           SKY/WX    TMP DP  RH WIND       PRES   REMARKS
BUFFALO          N/A     57  25  29 NE5       30.16S
FAITH            N/A     58  27  30 CALM      30.20F
MOBRIDGE       SUNNY     57  27  31 SW3       30.18S
$$

SDZ012>016-024>037-041>051-057-063-072>074-171700-
SOUTHWEST AND SOUTH CENTRAL SOUTH DAKOTA

CITY           SKY/WX    TMP DP  RH WIND       PRES   REMARKS
RAPID CTY ARPT CLOUDY    51  30  44 N10       30.21S
PIERRE         SUNNY     61  36  39 SW8       30.17F
CUSTER         CLOUDY    42  31  64 NE14      30.21R
ELLSWORTH AFB  CLOUDY    50  31  46 N8        30.21S
PHILIP         CLOUDY    58  33  39 NE9       30.19S
PINE RIDGE     CLOUDY    49  37  63 NE12      30.16S
SPEARFISH      FAIR      52  32  46 E5        30.23S
WINNER         FAIR      61  39  44 NE12      30.14F
$$

SDZ004>011-016>023-039-040-171700-
NORTHEAST SOUTH DAKOTA

CITY           SKY/WX    TMP DP  RH WIND       PRES   REMARKS
ABERDEEN       SUNNY     62  27  26 VRB3      30.18F
WATERTOWN      SUNNY     64  26  23 N8G17     30.15F
BROOKINGS      SUNNY     64  36  34 NE7G16    30.15F
SISSETON         N/A     64  23  21 NE6       30.16F
$$

SDZ017-020-022-023-036>040-048>070-171700-
SOUTHEAST SOUTH DAKOTA

CITY           SKY/WX    TMP DP  RH WIND       PRES   REMARKS
SIOUX FALLS    MOSUNNY   68  44  42 NE8       30.12F
HURON          SUNNY     67  30  25 NE7       30.15F
CHAMBERLAIN    MOSUNNY   61  39  43 NE7       30.16F
MITCHELL       SUNNY     65  40  39 NE6       30.15S
YANKTON        PTSUNNY   61  45  55 E6        30.11F
$$

ABBREVIATIONS USED IN REMARKS
   TC - TEMPERATURE IN CELSIUS
  WCI - WIND CHILL INDEX
   HX - HEAT INDEX
  VSB - VISIBILITY



USA.gov is the U.S. government's official web portal to all federal, state and local government web resources and services.